Weather History for Louisa, VA

Change the Weather History Date:

Saturday, March 31, 2012

  Actual Average (KCHO) Record (KCHO)
Temperature  
Mean Temperature 63 °F 51 °F  
Max Temperature 75 °F 63 °F 92 °F (1998)
Min Temperature 51 °F 39 °F 18 °F (1923)
Degree Days  
Heating Degree Days 2 14  
Month to date heating degree days 590  
Since 1 July heating degree days 4004  
Cooling Degree Days 0 0  
Month to date cooling degree days 2  
Year to date cooling degree days 2  
Growing Degree Days 13 (Base 50)    
Moisture  
Dew Point 50 °F    
Average Humidity 69    
Maximum Humidity 88    
Minimum Humidity 50    
Precipitation  
Precipitation 0.00 in 0.14 in 0.36 in (2002)
Month to date precipitation 3.66  
Year to date precipitation 9.13  
Sea Level Pressure  
Sea Level Pressure 29.75 in    
Wind  
Wind Speed 3 mph (ENE)    
Max Wind Speed 14 mph    
Max Gust Speed 20 mph    
Visibility 10 miles    
Events      
T = Trace of Precipitation, MM = Missing Value Source: NWS Daily Summary

Daily Weather History Graph

Daily Weather History Graph

Search for Another Location

Airport:

Trip Planner

Search our weather history database for the weather conditions in past years. The results will help you decide how hot, cold, wet, or windy it might be!

Date:

Astronomy

Mar. 31, 2012 Rise Set
Actual Time 6:57 AM EDT 7:34 PM EDT
Civil Twilight 6:31 AM EDT 8:01 PM EDT
Nautical Twilight 6:00 AM EDT 8:32 PM EDT
Astronomical Twilight 5:28 AM EDT 9:04 PM EDT
Moon 1:06 PM EDT (3/31) 2:47 AM EDT (3/31)
Length of Visible Light 13h 29m
Length of Day
12h 36m
First Quarter, 59% of the Moon is Illuminated
Mar 31
First Quarter
Apr 6
Full
Apr 13
Last Quarter
Apr 21
New
Apr 29
First Quarter

Hourly Weather History & Observations

Time (EDT) Temp. Dew Point Humidity Pressure Visibility Wind Dir Wind Speed Gust Speed Precip Events Conditions
12:15 AM 53.6 °F 46.4 °F 77% 29.85 in 10.0 mi SE 3.5 mph - N/A   Clear
12:35 AM 53.6 °F 46.4 °F 77% 29.85 in 10.0 mi SSE 3.5 mph - N/A   Clear
12:55 AM 53.6 °F 46.4 °F 77% 29.85 in 10.0 mi Calm Calm - N/A   Clear
1:15 AM 53.6 °F 46.4 °F 77% 29.84 in 10.0 mi Calm Calm - N/A   Scattered Clouds
1:35 AM 53.6 °F 46.4 °F 77% 29.83 in 10.0 mi Calm Calm - N/A   Scattered Clouds
1:55 AM 53.6 °F 46.4 °F 77% 29.82 in 10.0 mi Calm Calm - N/A   Clear
2:15 AM 53.6 °F 46.4 °F 77% 29.81 in 10.0 mi SSE 3.5 mph - N/A   Scattered Clouds
2:35 AM 53.6 °F 46.4 °F 77% 29.80 in 10.0 mi Calm Calm - N/A   Mostly Cloudy
3:15 AM 53.6 °F 46.4 °F 77% 29.77 in 10.0 mi SSW 3.5 mph - N/A   Scattered Clouds
3:35 AM 53.6 °F 46.4 °F 77% 29.77 in 10.0 mi Calm Calm - N/A   Mostly Cloudy
3:55 AM 53.6 °F 48.2 °F 82% 29.79 in 10.0 mi North 5.8 mph - N/A   Overcast
4:15 AM 53.6 °F 48.2 °F 82% 29.78 in 10.0 mi North 4.6 mph - N/A   Drizzle
4:35 AM 53.6 °F 48.2 °F 82% 29.78 in 10.0 mi North 4.6 mph - N/A   Light Drizzle
4:55 AM 51.8 °F 48.2 °F 88% 29.77 in 10.0 mi Calm Calm - N/A   Mostly Cloudy
5:15 AM 51.8 °F 48.2 °F 88% 29.76 in 10.0 mi SSE 3.5 mph - N/A   Scattered Clouds
5:35 AM 51.8 °F 48.2 °F 88% 29.75 in 10.0 mi SSE 3.5 mph - N/A   Clear
5:55 AM 51.8 °F 48.2 °F 88% 29.73 in 10.0 mi SSE 3.5 mph - N/A   Clear
6:15 AM 51.8 °F 48.2 °F 88% 29.74 in 10.0 mi Calm Calm - N/A   Clear
6:35 AM 53.6 °F 48.2 °F 82% 29.73 in 10.0 mi South 3.5 mph - N/A   Clear
6:55 AM 53.6 °F 48.2 °F 82% 29.73 in 10.0 mi Calm Calm - N/A   Scattered Clouds
7:15 AM 53.6 °F 48.2 °F 82% 29.74 in 10.0 mi Calm Calm - N/A   Scattered Clouds
7:35 AM 51.8 °F 48.2 °F 88% 29.75 in 10.0 mi Calm Calm - N/A   Scattered Clouds
8:15 AM 53.6 °F 48.2 °F 82% 29.75 in 10.0 mi Calm Calm - N/A   Overcast
8:35 AM 53.6 °F 48.2 °F 82% 29.75 in 10.0 mi Calm Calm - N/A   Overcast
8:55 AM 55.4 °F 50.0 °F 82% 29.75 in 10.0 mi Calm Calm - N/A   Mostly Cloudy
9:15 AM 55.4 °F 50.0 °F 82% 29.75 in 10.0 mi Calm Calm - N/A   Scattered Clouds
9:35 AM 57.2 °F 51.8 °F 82% 29.75 in 10.0 mi Calm Calm - N/A   Scattered Clouds
9:55 AM 60.8 °F 51.8 °F 72% 29.75 in 10.0 mi Calm Calm - N/A   Clear
10:15 AM 60.8 °F 51.8 °F 72% 29.75 in 10.0 mi Calm Calm - N/A   Clear
10:35 AM 62.6 °F 51.8 °F 68% 29.76 in 10.0 mi Calm Calm - N/A   Scattered Clouds
10:55 AM 62.6 °F 53.6 °F 72% 29.76 in 10.0 mi Calm Calm - N/A   Clear
11:15 AM 62.6 °F 53.6 °F 72% 29.75 in 10.0 mi Calm Calm - N/A   Scattered Clouds
11:35 AM 64.4 °F 53.6 °F 68% 29.75 in 10.0 mi Calm Calm - N/A   Scattered Clouds
11:55 AM 66.2 °F 53.6 °F 64% 29.74 in 10.0 mi Calm Calm - N/A   Scattered Clouds
12:15 PM 68.0 °F 53.6 °F 60% 29.74 in 10.0 mi Calm Calm - N/A   Clear
12:35 PM 69.8 °F 53.6 °F 56% 29.73 in 10.0 mi Calm Calm - N/A   Clear
12:55 PM 71.6 °F 55.4 °F 57% 29.72 in 10.0 mi NNW 3.5 mph - N/A   Clear
1:15 PM 73.4 °F 55.4 °F 53% 29.72 in 10.0 mi North 5.8 mph - N/A   Clear
1:35 PM 75.2 °F 55.4 °F 50% 29.71 in 10.0 mi ENE 3.5 mph - N/A   Scattered Clouds
1:55 PM 73.4 °F 53.6 °F 50% 29.71 in 10.0 mi ENE 4.6 mph - N/A   Scattered Clouds
2:15 PM 73.4 °F 53.6 °F 50% 29.70 in 10.0 mi NE 8.1 mph - N/A   Scattered Clouds
2:35 PM 73.4 °F 53.6 °F 50% 29.69 in 10.0 mi NE 6.9 mph - N/A   Scattered Clouds
2:55 PM 71.6 °F 51.8 °F 50% 29.69 in 10.0 mi NE 4.6 mph - N/A   Mostly Cloudy
3:15 PM 71.6 °F 53.6 °F 53% 29.69 in 10.0 mi NNE 6.9 mph - N/A   Overcast
3:35 PM 71.6 °F 53.6 °F 53% 29.69 in 10.0 mi ENE 5.8 mph - N/A   Mostly Cloudy
3:55 PM 69.8 °F 51.8 °F 53% 29.70 in 10.0 mi ENE 5.8 mph - N/A   Overcast
4:15 PM 71.6 °F 53.6 °F 53% 29.70 in 10.0 mi ENE 4.6 mph - N/A   Overcast
4:35 PM 73.4 °F 53.6 °F 50% 29.69 in 10.0 mi East 9.2 mph - N/A   Scattered Clouds
4:55 PM 71.6 °F 51.8 °F 50% 29.69 in 10.0 mi ENE 8.1 mph - N/A   Scattered Clouds
5:15 PM 71.6 °F 53.6 °F 53% 29.70 in 10.0 mi East 6.9 mph - N/A   Scattered Clouds
5:35 PM 68.0 °F 51.8 °F 56% 29.70 in 10.0 mi East 10.4 mph - N/A   Scattered Clouds
5:55 PM 68.0 °F 53.6 °F 60% 29.71 in 10.0 mi East 8.1 mph - N/A   Mostly Cloudy
6:15 PM 66.2 °F 51.8 °F 60% 29.72 in 10.0 mi East 10.4 mph - N/A   Overcast
6:35 PM 66.2 °F 51.8 °F 60% 29.74 in 10.0 mi ENE 8.1 mph - N/A   Overcast
6:55 PM 64.4 °F 50.0 °F 59% 29.75 in 10.0 mi NE 13.8 mph 19.6 mph N/A   Mostly Cloudy
7:15 PM 64.4 °F 50.0 °F 59% 29.76 in 10.0 mi NE 12.7 mph 17.3 mph N/A   Overcast
7:35 PM 62.6 °F 50.0 °F 63% 29.77 in 10.0 mi NE 10.4 mph - N/A   Overcast
7:55 PM 62.6 °F 48.2 °F 59% 29.78 in 10.0 mi ENE 9.2 mph - N/A   Overcast
8:15 PM 60.8 °F 48.2 °F 63% 29.79 in 10.0 mi NE 8.1 mph - N/A   Overcast
8:35 PM 60.8 °F 48.2 °F 63% 29.80 in 10.0 mi NE 8.1 mph - N/A   Overcast
8:55 PM 59.0 °F 48.2 °F 67% 29.81 in 10.0 mi East 8.1 mph - N/A   Overcast
9:15 PM 57.2 °F 48.2 °F 72% 29.83 in 10.0 mi ENE 8.1 mph - N/A   Overcast
9:35 PM 55.4 °F 48.2 °F 77% 29.84 in 10.0 mi ENE 9.2 mph 16.1 mph N/A   Overcast
9:55 PM 55.4 °F 46.4 °F 72% 29.85 in 10.0 mi East 9.2 mph - N/A   Overcast
10:15 PM 55.4 °F 46.4 °F 72% 29.85 in 10.0 mi ENE 6.9 mph - N/A   Overcast
10:35 PM 53.6 °F 46.4 °F 77% 29.85 in 10.0 mi East 9.2 mph - N/A   Overcast
10:55 PM 53.6 °F 46.4 °F 77% 29.86 in 10.0 mi East 5.8 mph - N/A   Overcast
11:15 PM 53.6 °F 46.4 °F 77% 29.87 in 10.0 mi East 6.9 mph - N/A   Overcast
11:35 PM 51.8 °F 44.6 °F 76% 29.87 in 10.0 mi East 4.6 mph - N/A   Overcast
11:55 PM 51.8 °F 44.6 °F 76% 29.87 in 10.0 mi ENE 5.8 mph - N/A   Overcast